Flag Weather past 2 weeks in Le Mans, France

Now
63 °F

Partly sunny.


Feels Like: 63 °F
Forecast: 49 / 54 °F
Wind: 3 mph from North

Location: Le Mans Airport

Current Time: Nov 23, 2014 at 4:03:09 PM

Latest Report: Nov 23, 2014 at 3:30 PM


Visibility: N/A

Pressure: 29.92 "Hg

Humidity: 73%

Dew point: 54 °F

Location of Le MansLocation

Historic Weather in Le Mans — Graph

°F

Le Mans temperature yesterday

Maximum temperature yesterday: 61 °F (at 2:00 PM)
Minimum temperature yesterday: 46 °F (at 12:00 AM)
Average temperature yesterday: 54 °F

Past Weeks' High & Low Weather Summary

 TemperatureHumidityPressure
High64 °F (Nov 23, 12:30 PM)100% (Nov 9, 10:30 PM)30.18 "Hg (Nov 9, 10:30 PM)
Low36 °F (Nov 10, 1:30 AM)59% (Nov 12, 2:00 PM)29.42 "Hg (Nov 11, 2:00 PM)
Average50 °F87%29.74 "Hg
* Reported Nov 8 3:00 PM — Nov 23 3:00 PM, Le Mans, Weather by CustomWeather, © 2014

Note: Actual official high and low records may vary slightly from our data, if they occured in-between our weather recording intervals... More about our weather records

Advertising

Le Mans weather history for previous 24 hours

 ConditionsComfort  
Time TempWeatherWind HumidityBarometerVisibility
3:00 PM
Nov 23
64 °FScattered clouds.5 mph73%29.92 "HgN/A
2:30 PM64 °FPartly sunny.5 mph73%29.92 "HgN/A
2:00 PM64 °FClear.6 mph68%29.92 "HgN/A
1:30 PM64 °FClear.6 mph68%29.92 "HgN/A
1:00 PM64 °FClear.5 mph68%29.95 "HgN/A
12:30 PM64 °FClear.1 mph73%29.95 "HgN/A
12:00 PM63 °FClear.No wind73%29.95 "HgN/A
11:30 AM59 °FClear.No wind82%29.95 "HgN/A
11:00 AM55 °FClear.2 mph94%29.95 "HgN/A
10:30 AM54 °FClear.2 mph94%29.95 "HgN/A
10:00 AM52 °FClear.3 mph94%29.95 "HgN/A
9:30 AM50 °FClear.2 mph100%29.95 "HgN/A
9:00 AM50 °FClear.1 mph94%29.95 "Hg6 mi
8:30 AM50 °FClear.2 mph94%29.95 "Hg4 mi
8:00 AM50 °FClear.2 mph100%29.95 "HgN/A
7:30 AM50 °FClear.3 mph100%29.95 "Hg6 mi
7:00 AM50 °FClear.3 mph100%29.95 "HgN/A
6:30 AM48 °FClear.2 mph94%29.95 "Hg5 mi
6:00 AM46 °FClear.No wind100%29.95 "Hg4 mi
5:30 AM46 °FFog.1 mph93%29.95 "Hg2 mi
5:00 AM46 °FFog.1 mph93%29.95 "Hg2 mi
4:30 AM46 °FFog.No wind93%29.95 "Hg1 mi
3:30 AM48 °FFog.1 mph94%29.95 "Hg2 mi
3:00 AM48 °FFog.2 mph94%29.98 "Hg1 mi
2:30 AM48 °FFog.No wind100%29.98 "Hg1 mi
2:00 AM50 °FFog.1 mph94%29.98 "Hg1 mi
1:30 AM50 °FFog.2 mph100%29.98 "Hg2 mi
1:00 AM50 °FClear.3 mph100%29.98 "Hg4 mi
12:30 AM50 °FFog.2 mph94%29.98 "Hg2 mi
12:00 AM50 °FFog.2 mph100%29.98 "Hg3 mi
11:30 PM
Nov 22
52 °FFog.2 mph94%29.98 "Hg3 mi
11:00 PM52 °FClear.3 mph94%29.98 "Hg4 mi
10:30 PM52 °FFog.2 mph94%29.98 "Hg2 mi
10:00 PM52 °FLight fog.2 mph94%29.98 "Hg1 mi
9:30 PM54 °FFog.3 mph94%29.98 "Hg3 mi
9:00 PM54 °FClear.2 mph94%29.98 "Hg5 mi
8:30 PM55 °FClear.2 mph88%29.98 "HgN/A
8:00 PM55 °FClear.2 mph94%29.98 "HgN/A
7:30 PM55 °FClear.1 mph94%29.98 "HgN/A
7:00 PM57 °FClear.No wind88%29.98 "HgN/A
6:30 PM57 °FLight rain. Clear.3 mph88%29.98 "HgN/A
6:00 PM57 °FClear.2 mph88%29.98 "HgN/A
5:30 PM57 °FClear.2 mph88%29.95 "HgN/A
5:00 PM59 °FClear.3 mph82%29.95 "HgN/A
4:30 PM59 °FClear.No wind82%29.95 "HgN/A
4:00 PM61 °FBroken clouds.No wind77%29.95 "HgN/A
Weather by CustomWeather, © 2014

See weather overviewHow to use our weather pages